Weather History for Nashville, TN

Change the Weather History Date:

Thursday, April 25, 2013

  Actual Average Record
Temperature  
Mean Temperature 52 °F 62 °F  
Max Temperature 67 °F 73 °F 89 °F (1989)
Min Temperature 36 °F 51 °F 32 °F (1910)
Degree Days  
Heating Degree Days 13 5  
Month to date heating degree days 186 197  
Since 1 July heating degree days 3434 3608  
Cooling Degree Days 0 2  
Month to date cooling degree days 47 30  
Year to date cooling degree days 52 38  
Growing Degree Days 1 (Base 50)    
Moisture  
Dew Point 35 °F    
Average Humidity 58    
Maximum Humidity 92    
Minimum Humidity 24    
Precipitation  
Precipitation 0.00 in 0.16 in 1.35 in (1993)
Month to date precipitation 4.09 3.23  
Year to date precipitation 18.13 15.03  
Snow  
Snow 0.00 in 0.00 in 1.50 in (1910)
Month to date snowfall 0.0 0.1  
Since 1 July snowfall 1.3 6.4  
Snow Depth 0.00 in    
Sea Level Pressure  
Sea Level Pressure 30.34 in    
Wind  
Wind Speed 4 mph (North)    
Max Wind Speed 14 mph    
Max Gust Speed 20 mph    
Visibility 10 miles    
Events Fog    
T = Trace of Precipitation, MM = Missing Value Source: NWS Daily Summary

Daily Weather History Graph

Daily Weather History Graph

Search for Another Location

Airport:

Trip Planner

Search our weather history database for the weather conditions in past years. The results will help you decide how hot, cold, wet, or windy it might be!

Date:

Astronomy

Apr. 25, 2013 Rise Set
Actual Time 6:00 AM CDT 7:29 PM CDT
Civil Twilight 5:33 AM CDT 7:56 PM CDT
Nautical Twilight 5:01 AM CDT 8:29 PM CDT
Astronomical Twilight 4:26 AM CDT 9:03 PM CDT
Moon 7:40 PM CDT (4/25) 5:43 AM CDT (4/25)
Length of Visible Light 14h 22m
Length of Day
13h 28m
Full, 100% of the Moon is Illuminated
Apr 25
Full
Apr 25
Full
May 2
Last Quarter
May 9
New
May 17
First Quarter

Hourly Weather History & Observations

Time (CDT) Temp. Windchill Dew Point Humidity Pressure Visibility Wind Dir Wind Speed Gust Speed Precip Events Conditions
12:23 AM 46.4 °F 42.9 °F 35.6 °F 66% 30.31 in 10.0 mi North 6.9 mph - N/A   Overcast
12:53 AM 46.0 °F 42.5 °F 36.0 °F 68% 30.31 in 10.0 mi North 6.9 mph - N/A   Overcast
1:39 AM 42.8 °F 40.1 °F 35.6 °F 76% 30.29 in 10.0 mi NNE 4.6 mph - N/A   Partly Cloudy
1:53 AM 42.1 °F 39.2 °F 35.1 °F 76% 30.30 in 10.0 mi NNE 4.6 mph - N/A   Clear
2:53 AM 42.1 °F 40.2 °F 35.1 °F 76% 30.29 in 10.0 mi NNE 3.5 mph - N/A   Clear
3:53 AM 41.0 °F 39.0 °F 35.1 °F 79% 30.30 in 10.0 mi North 3.5 mph - N/A   Clear
4:53 AM 37.0 °F - 34.0 °F 89% 30.32 in 10.0 mi Calm Calm - N/A   Clear
5:53 AM 36.0 °F - 33.1 °F 89% 30.34 in 10.0 mi Calm Calm - N/A Fog Patches of Fog
6:53 AM 39.0 °F 36.8 °F 35.1 °F 86% 30.36 in 10.0 mi WNW 3.5 mph - N/A Fog Patches of Fog
7:53 AM 45.0 °F - 37.9 °F 76% 30.37 in 10.0 mi Calm Calm - N/A   Clear
8:53 AM 48.0 °F - 35.1 °F 61% 30.38 in 10.0 mi Calm Calm - N/A   Clear
9:53 AM 51.1 °F - 34.0 °F 52% 30.39 in 10.0 mi Calm Calm - N/A   Clear
10:53 AM 54.0 °F - 34.0 °F 47% 30.39 in 10.0 mi Variable 4.6 mph - N/A   Clear
11:53 AM 59.0 °F - 35.1 °F 41% 30.39 in 10.0 mi NNE 3.5 mph - N/A   Clear
12:53 PM 60.1 °F - 32.0 °F 35% 30.38 in 10.0 mi Variable 3.5 mph - N/A   Clear
1:53 PM 64.0 °F - 34.0 °F 33% 30.36 in 10.0 mi ENE 4.6 mph - N/A   Clear
2:53 PM 64.9 °F - 33.1 °F 31% 30.33 in 10.0 mi Variable 3.5 mph - N/A   Clear
3:53 PM 66.0 °F - 30.9 °F 27% 30.32 in 10.0 mi West 8.1 mph - N/A   Clear
4:53 PM 66.9 °F - 28.9 °F 24% 30.33 in 10.0 mi North 13.8 mph 18.4 mph N/A   Partly Cloudy
5:53 PM 64.9 °F - 32.0 °F 29% 30.33 in 10.0 mi NNW 6.9 mph - N/A   Clear
6:53 PM 61.0 °F - 34.0 °F 36% 30.32 in 10.0 mi NNE 11.5 mph - N/A   Partly Cloudy
7:53 PM 57.0 °F - 34.0 °F 42% 30.34 in 10.0 mi North 5.8 mph - N/A   Partly Cloudy
8:53 PM 55.0 °F - 36.0 °F 49% 30.35 in 10.0 mi Calm Calm - N/A   Clear
9:53 PM 51.1 °F - 37.9 °F 61% 30.37 in 10.0 mi South 4.6 mph - N/A   Clear
10:53 PM 48.9 °F - 39.9 °F 71% 30.37 in 10.0 mi Calm Calm - N/A   Clear
11:53 PM 45.0 °F 41.8 °F 39.0 °F 80% 30.37 in 10.0 mi South 5.8 mph - N/A   Clear